Hourly Data Report for May 18, 2012

All times are specified in Local Standard Time (LST). Add 1 hour to adjust for Daylight Saving Time where and when it is observed.

HAMILTON A
ONTARIO

43°10'25.000" N
79°56'06.000" W
237.70 m
6153193
71263
YHM

Download Data

Hourly Data (May 2012)
Hourly Data Report for May 18, 2012
Temp Definition
°C
Dew Point Temp Definition
°C
Rel Hum Definition
%
Wind Dir Definition
10's deg

Wind Spd Definition
km/h
Visibility Definition
km
Stn Press Definition
kPa
Hmdx Definition


Wind Chill Definition


Weather Definition


TIME
00:00 8.5 2.8 67 30 14 10.0 99.37     LegendNANA
01:00 8.4 2.0 64 32 9 10.0 99.35     Clear
02:00 8.0 1.9 65 34 4 10.0 99.34     LegendNANA
03:00 7.7 1.6 65   0 10.0 99.31     LegendNANA
04:00 6.6 1.1 68 4 5 10.0 99.31     Clear
05:00 5.7 1.3 73 5 8 10.0 99.33     LegendNANA
06:00 7.6 4.0 78 3 9 10.0 99.40     LegendNANA
07:00 11.6 4.6 62 7 9 10.0 99.39     Mostly Cloudy
08:00 14.0 4.1 51 8 11 10.0 99.44     LegendNANA
09:00 15.5 4.3 47 4 13 10.0 99.48     LegendNANA
10:00 17.3 3.3 39 9 14 10.0 99.47     Mainly Clear
11:00 18.3 4.6 40 9 12 10.0 99.45     LegendNANA
12:00 18.7 4.2 38 6 14 10.0 99.43     LegendNANA
13:00 18.9 4.0 37 3 15 10.0 99.40     Mainly Clear
14:00 19.6 4.7 37 6 15 10.0 99.37     LegendNANA
15:00 19.3 3.6 35 5 18 10.0 99.32     LegendNANA
16:00 18.3 4.6 40 3 16 10.0 99.26     Mostly Cloudy
17:00 18.0 2.8 36 4 20 10.0 99.21     LegendNANA
18:00 16.7 2.8 39 6 18 10.0 99.18     LegendNANA
19:00 14.0 3.8 50 5 14 10.0 99.19     Mainly Clear
20:00 11.5 4.1 60 6 15 10.0 99.20     LegendNANA
21:00 11.8 3.9 58 4 9 10.0 99.21     LegendNANA
22:00 10.9 4.2 63 36 6 10.0 99.22     Mainly Clear
23:00 9.6 4.6 71 33 4 10.0 99.20     LegendNANA

Notes on Data Quality.

Legend

  • E = Estimated
  • M = Missing
  • NA = Not Available
Date modified: